DELTA 1 DEB, 10660

Orbit data source: Space-Track

DELTA 1 DEB, 10660 is space debris in LEO originally from a launch on Thu, 29 Jul 1976 UTC launched from the Air Force Western Test Range (AFWTR). Debris objects in space refer to the collection of defunct objects orbiting the Earth. Examples of debris include non-operational satellites, rocket bodies, and fragments generated from explosions, collisions, or faulty payload assembly.

Loading next visibility...
Identifier
10660, 1976-077W
Orbit
LEO
Country
Flag of USUS
Related business
Manufacturer
Unknown
Mission
Spacecraft
Bus & Motor
Unknown
Mass
Unknown
Launch date (UTC)
1976-07-29 (50 years ago)
Launch vehicle
Unknown
Launch site
Air Force Western Test Range (AFWTR)
Object type
Payload
Rocket body
Debris
Shape & HBR
Unknown shape, 0.2 m
Radar Cross Section
Medium (>0.1 m² and <1 m²)

Expand to show TLE details & history
Last TLE update: 14 hours ago

TLE from 14 hours ago
0 DELTA 1 DEB
1 10660U 76077W   26104.65841309 -.00000030  00000-0  91890-4 0  9994
2 10660 102.2609 356.8213 0394859 131.6779 303.3369 11.67441667116676
Epoch: 2026-04-14T15:48Z
TLE epoch observation values (Epoch: 2026-04-14T15:48:06.890Z)
Latitude
67.69964°
Longitude
-114.86348°
Altitude
1,672.61 km
Speed
7.116 km/s
True Right ascension
21h 39m 59s
True Declination
67° 35' 33"
Sunlit
Object was in daylight at epoch
Visualization orbit readout
Latitude
Unknown
Longitude
Unknown
Altitude
Unknown
Speed
Unknown
Apparent Right ascension
Unknown
Apparent Declination
Unknown
Sunlit
N/A
Visualization observer readout
Local Sidereal Time
12:18:39
Azimuth
Unknown
Elevation
Unknown
Doppler factor
Unknown
Orbital elements
Apogee altitude
2,151.703 km
Perigee altitude
1,503.674 km
Semi-major axis
8,205.826 km
Eccentricity
0.03949
Inclination
102.2609°
RAAN
356.8213°
Arg. of periapsis
131.6779°
True anomaly
299.45439°
Mean anomaly
303.3369°
Eccentric anomaly
301.40597°
Mean motion
2.91984 °/min
Orbital period
123.29 mins
BSTAR
0.00009189
Loading maneuver chart data...
Computing Atmospheric mass density...
Loading historical data...
Loading historical data...
Loading historical data...
Loading historical data...
Loading historical data...
Loading historical data...
Loading historical data...

Documentation

Showing up to 5 results
|